Regional Weather Roundup
Issued by NWS Grand Forks, ND

Home | Current Version | Previous Version | Text Only | Print | Product List | Glossary Off
Versions: 1 2 3 4 5 6 7 8 9 10 11 12 13 14 15 16 17 18 19 20 21 22 23 24 25 26 27 28 29 30 31 32 33 34 35 36 37 38 39 40 41 42 43 44 45 46 47 48 49 50

947
ASUS43 KFGF 092231
RWRFGF
PRAIRIE TO PINES  WEATHER ROUNDUP
NATIONAL WEATHER SERVICE EASTERN NORTH DAKOTA/GRAND FORKS ND
400 PM CST TUE FEB 09 2016

 **SATELLITE DATA USED TO AUGMENT SKY COVER AT AUTOMATED STATIONS**
 *****  WEATHER ACROSS EASTERN NORTH DAKOTA  *****

CITY           SKY/WX    TMP DP  RH WIND       PRES   REMARKS
GRAND FORKS    CLOUDY    11   3  70 N14       30.28S WCI  -5
GRAND FRKS AFB CLOUDY    10   1  67 N10       30.28R WCI  -3
DEVILS LAKE    SUNNY     13   7  77 NE7       30.22S WCI   3
FARGO          CLOUDY    14   5  67 N14       30.26S WCI  -1
WAHPETON ARPT  CLOUDY    14   5  67 N10       30.25R WCI   1
$$

 ***** WEATHER ACROSS CENTRAL AND WESTERN NORTH DAKOTA  *****

CITY           SKY/WX    TMP DP  RH WIND       PRES   REMARKS
BISMARCK       CLOUDY    41  16  36 VRB5      30.14F
MINOT          CLOUDY    37  17  44 NW7       30.12F
JAMESTOWN      CLOUDY    23  10  57 NE8       30.18S WCI  14
MINOT AFB      CLOUDY    34  19  52 CALM      30.13S
GARRISON         N/A     36  19  50 N8        30.11F
WILLISTON      CLOUDY    38  23  55 CALM      30.13F
DICKINSON      CLOUDY    39  21  48 NW9       30.09F
HETTINGER      CLOUDY    44  21  40 N16       30.11F
$$

 *****  OTHER AIRPORT OBSERVATIONS IN OUR AREA  *****

CITY           SKY/WX    TMP DP  RH WIND       PRES   REMARKS
WALHALLA       FAIR       9   1  72 N10       30.30S WCI  -6
GRAFTON AIRPOR MOCLDY     9   3  78 N13       30.31S WCI  -7
VALLEY CITY AR FAIR      18   9  68 NE7       30.23S WCI   8
CANDO          MOCLDY    14   9  79 E8        30.25S WCI   3
CAVALIER APRT  CLOUDY     7   1  78 N9        30.30S WCI  -7
GWINNER        FAIR      21  12  68 NE9       30.23R WCI  11
ROLLA          MOCLDY    12   7  79 E8        30.21R WCI   1
 ***** THE ABOVE OBSERVATIONS ARE NON NWS ARE NOT QUALITY
       CONTROLLED AND MAY MIS-REPORT RAIN FOR SNOW...
$$

  *****  WEATHER ACROSS NORTHERN MINNESOTA  *****

CITY           SKY/WX    TMP DP  RH WIND       PRES   REMARKS
FLAG ISLAND    SUNNY      7  -4  61 NW12      30.21S WCI  -9
WARROAD        SUNNY     10  -2  56 NW6       30.22R WCI   1
ROSEAU         SUNNY      7   0  72 W8        30.23R WCI  -6
HALLOCK        CLOUDY     5  -2  72 N14       30.29S WCI -12
THF RVR FALLS  SUNNY      9  -2  61 NW13      30.24S WCI  -7
BAUDETTE       SUNNY      6  -5  60 NW15      30.18R WCI -12
WASKISH        SUNNY      7  -2  66 NW6       30.18R WCI  -3
CROOKSTON      MOSUNNY    9   3  78 N15       30.28S WCI  -8
STEPHEN NDAWN    N/A      5   0  78 N13         N/A  WCI -12
GREENBUSH NDAW   N/A      3  -2  78 NW13        N/A  WCI -14
$$
  *****  WEATHER ACROSS CENTRAL AND WEST MINNESOTA  *****

CITY           SKY/WX    TMP DP  RH WIND       PRES   REMARKS
FOSSTON        SUNNY     10   0  61 NW9       30.22R WCI  -2
BEMIDJI        SUNNY      7  -2  66 NW10      30.16R WCI  -7
PARK RAPIDS    SUNNY     13  -3  49 NW15      30.13R WCI  -3
ELBOW LAKE     CLOUDY    13   6  73 W17       30.21R HAZE    WCI  -4
WADENA         SUNNY     12   1  62 NW16      30.15R WCI  -4
DETROIT LAKES  CLOUDY    10   5  79 N14       30.20R WCI  -5
MOORHEAD       CLOUDY    12   5  73 N13       30.26S WCI  -3
FERGUS FALLS   CLOUDY    12   5  73 NW14      30.25R WCI  -3
MORRIS MN      CLOUDY    16   9  73 NW21      30.20R WCI  -2
STAPLES        SUNNY     12  -2  52 N14       30.14R WCI  -3
$$
  *****  WEATHER ELSEWHERE ACROSS MINNESOTA  *****

CITY           SKY/WX    TMP DP  RH WIND       PRES   REMARKS
DULUTH         MOSUNNY    9  -5  53 N17G26    30.02R WCI  -9
INTRNTL FALLS  SUNNY      6  -5  60 N15       30.14S WCI -12
ELY            PTSUNNY    3  -2  78 NW8G18    30.05R WCI -10
CLOQUET        SUNNY     10  -6  48 NW18G29   30.06R WCI  -8
WHEATON        CLOUDY    18  10  73 NW13      30.26R WCI   4
BRAINERD       SUNNY     12  -4  48 N17G23    30.13S WCI  -5
HIBBING        SUNNY      6  -4  63 NW16      30.07R WCI -12
ALEXANDRIA     SUNNY     14  -1  51 NW12      30.16R WCI   0
SAINT CLOUD    SUNNY     15   0  51 NW17      30.13R WCI  -1
MINNEAPOLIS    SUNNY     16   0  49 NW16      30.11R WCI   1
$$

  *****  WEATHER ACROSS SOUTH DAKOTA  *****

CITY           SKY/WX    TMP DP  RH WIND       PRES   REMARKS
SIOUX FALLS    CLOUDY    23  11  60 NW13      30.21S WCI  11
BROOKINGS      CLOUDY    21  11  65 NW13      30.18R WCI   9
WATERTOWN      CLOUDY    22  10  60 NW14      30.17F WCI   9
HURON          PTSUNNY   31  13  47 VRB3      30.21F
SISSETON         N/A     20  10  65 N12       30.22S WCI   8
ABERDEEN       CLOUDY    31  13  47 E8        30.20S WCI  23
MITCHELL       CLOUDY    30  13  49 NW7       30.24F WCI  23
PIERRE         MOSUNNY   35  15  44 SW9       30.16F
MOBRIDGE       CLOUDY    38  17  42 VRB3      30.13S
RAPID CITY     CLOUDY    53  29  39 NW21G30   30.11F
$$

  *****  SOME WEATHER IN NEARBY STATES *****

CITY           SKY/WX    TMP DP  RH WIND       PRES   REMARKS
GLASGOW MT     SUNNY     49  33  54 W12       30.08F
GREAT FALLS MT MOSUNNY   61  26  26 SW23G29   30.15F
CHEYENNE WY    SUNNY     46  23  40 NW18G30   30.27S
SCOTTSBLUFF NE SUNNY     52  34  50 NW12G22   30.21S
OMAHA NE       MOSUNNY   23  10  57 NW16      30.25R WCI  10
DES MOINES IA  MOSUNNY   18   5  57 NW20G29   30.13S WCI   2
DAVENPORT IA   PTSUNNY   15   5  64 NW23      30.00R WCI  -3
CHICAGO IL     FLURRIES  17   7  64 NW13      29.89R WCI   4
EAU CLAIRE WI  SUNNY     14  -1  51 NW12      30.02R WCI   0
LA CROSSE WI   SUNNY     15   0  51 NW15      30.02R WCI   0
$$

  *****  SOME NATIONAL WEATHER *****

CITY           SKY/WX    TMP DP  RH WIND       PRES   REMARKS
LA GUARDIA NY  CLOUDY    34  23  64 NE8       29.59R
RALEIGH NC     CLOUDY    39  21  48 W9        29.69R
ATLANTA GA     PTSUNNY   32  19  58 W17G29    29.90R WCI  21
NEW ORLEANS LA FAIR      58  15  18 W18       30.08R
OKLAHOMA CITY  FAIR      50  21  32 N21G30    30.27S
ALBUQUERQUE NM SUNNY     59  21  23 CALM      30.32F
SALT LAKE CITY SUNNY     40  29  64 NW7       30.52F HAZE
LOS ANGELES CA MOSUNNY   85  32  15 W10       30.06F
BOISE ID       SUNNY     42  31  64 CALM      30.49F
SEATTLE WA     PTSUNNY   62  42  47 W5        30.13F
$$

*** WEATHER ACROSS MANITOBA...SASKATCHEWAN AND ONTARIO ***
                ***ONTARIO***

CITY           SKY/WX    TMP DP  RH WIND       PRES   REMARKS
GERALDTON      LGT SNOW   1  -6  71 N9G22     29.94R DRFTSNOWWCI -14
THUNDER BAY    MOCLDY     5  -6  61 NW14G21   30.04R WCI -12
SIOUX LOOKOUT  MOCLDY     1  -8  66 N12G23    30.10R WCI -15
TORONTO        MOCLDY    34  27  75 SW13      29.47R WCI  25
BIG TROUT LK   CLEAR    -11 -18  70 NW9       30.21R WCI -29
PICKLE LAKE    CRYSTALS  -8 -18  59 N8G17     30.09R WCI -23
DRYDEN         MOSUNNY    1  -8  66 NW8G20    30.12R WCI -12
KENORA         MOSUNNY    3  -8  60 NW13      30.18R WCI -14
$$
                *** MANITOBA***

CITY           SKY/WX    TMP DP  RH WIND       PRES   REMARKS
BRANDON        CLOUDY    10   5  79 E8        30.26R WCI  -1
DAUPHIN        PTSUNNY    5   0  78 E5        30.31S WCI  -4
ISLAND LAKE    PTCLDY    -9 -17  70 NW7       30.34S WCI -24
PILOT MOUND      N/A      7   1  78 NE9         N/A  WCI  -7
THE PAS        PTSUNNY   -4 -13  65 SE5       30.30F WCI -15
THOMPSON       PTCLDY    -8 -17  65 CALM      30.35F
WINNIPEG       MOSUNNY    1  -6  71 NE7       30.32F WCI -11
LYNN LAKE      FLURRIES  -8 -15  71 SE5       30.26F WCI -19
CHURCHILL      CRYSTALS -24 -31  69 NW12      30.41S WCI -47
GILLAM         CLEAR    -13 -22  64 W8        30.37S WCI -30
$$
                ***SASKATCHEWAN***

CITY           SKY/WX    TMP DP  RH WIND       PRES   REMARKS
ESTEVAN        FLURRIES  32  23  69 NW3       30.13S
KINDERSLEY     MOSUNNY   37  30  75 W8        30.01F
LLOYDMINSTER   CLOUDY    41  32  70 W10       29.94F
PRINCE ALBERT  LGT SNOW  14  10  85 E8        30.10F DRFTSNOWWCI   3
REGINA         PTSUNNY   30  25  80 SE12      30.09F WCI  21
YORKTON        CLOUDY    18  12  79 SE9       30.18F WCI   6
N. BATTLEFORD  MOSUNNY   32  30  93 SE10      30.01F WCI  24
LA RONGE       LGT SNOW  10   5  79 E8        30.13F WCI  -1
SASKATOON      PTSUNNY   30  27  86 SE13      30.05F WCI  20
SWIFT CURRENT  SUNNY     50  32  50 NW15      30.02F
$$
NOTE: THESE ARE AUTOMATED STATIONS WITH LIMITED QUALITY CONTROL
      "FAIR" INDICATES FEW OR NO CLOUDS BELOW 12,000 FEET WITH NO
      SIGNIFICANT WEATHER AND/OR OBSTRUCTIONS TO VISIBILITY.
      SKY/WX - SKY CONDITION AND SIGNIFICANT WEATHER.
      TMP - AIR TEMPERATURE.    DP   - DEWPOINT TEMPERATURE.
      RH  - RELATIVE HUMIDITY.  PRES - PRESSURE.
      HX  - HEAT INDEX.         WCI  - WIND CHILL INDEX.
$




USA.gov is the U.S. government's official web portal to all federal, state and local government web resources and services.